Regional Weather Roundup
Issued by NWS Northern Indiana

Home | Current Version | Previous Version | Text Only | Print | Product List | Glossary Off
Versions: 1 2 3 4 5 6 7 8 9 10 11 12 13 14 15 16 17 18 19 20 21 22 23 24 25 26 27 28 29 30 31 32 33 34 35 36 37 38 39 40 41 42 43 44 45 46 47 48 49 50

743
ASUS43 KIWX 061900
RWRIWX

KIWX WEATHER ROUNDUP
NATIONAL WEATHER SERVICE NORTHERN INDIANA
200 PM EST SAT FEB 06 2016

NOTE: "FAIR" INDICATES FEW OR NO CLOUDS BELOW 12,000 FEET WITH NO
SIGNIFICANT WEATHER AND/OR OBSTRUCTIONS TO VISIBILITY.

* THESE STATIONS ARE NOT UNDER NWS QUALITY CONTROL. THEY ALSO MAY NOT
  REPORT WEATHER SUCH AS PRECIPITATION OR FOG.

INZ001>027-062000-
NORTHERN INDIANA

CITY           SKY/WX    TMP DP  RH WIND       PRES   REMARKS
GARY*          MOSUNNY   39  25  56 SW20      30.21F
SOUTH BEND     MOSUNNY   36  22  56 SW14      30.21F
GOSHEN         SUNNY     36  22  56 SW15      30.21F
FORT WAYNE     MOSUNNY   36  23  59 SW14      30.24F
PERU/GRISSOM   SUNNY     39  24  54 W9        30.22F

$$
INZ028>050-062000-
CENTRAL INDIANA

CITY           SKY/WX    TMP DP  RH WIND       PRES   REMARKS
LAFAYETTE      SUNNY     40  24  53 W10       30.25F
KOKOMO*          N/A     39  25  56 SW8       30.25F
MUNCIE*        SUNNY     39  21  48 W6        30.25F
INDIANAPOLIS   MOSUNNY   43  20  39 SW7       30.25F

$$
MIZ043>046-050>051-056>058-064>065-071>073-077>080-062000-
SOUTHWEST LOWER MICHIGAN

CITY           SKY/WX    TMP DP  RH WIND       PRES   REMARKS
BATTLE CREEK   PTSUNNY   34  22  61 SW15      30.19F WCI  24
BENTON HARBOR  SUNNY     37  20  50 SW13      30.20F
COLDWATER*     SUNNY     34  23  64 W9        30.19F WCI  27
HILLSDALE*     SUNNY     34  21  57 SW10G16   30.17F WCI  26
HOLLAND        CLOUDY    34  26  72 SW16      30.18F WCI  24
GRAND RAPIDS   CLOUDY    34  23  64 W16       30.17F WCI  24
KALAMAZOO      MOSUNNY   36  20  52 SW13      30.19F
STURGIS*       SUNNY     34  22  63 SW12      30.19F WCI  25
THREE RIVERS*  FAIR      36  21  56 W10       30.20F

$$
OHZ001>008-015>018-024>025-062000-
NORTHWEST OHIO

CITY           SKY/WX    TMP DP  RH WIND       PRES   REMARKS
DEFIANCE       MOSUNNY   36  24  62 SW10      30.24F
FINDLAY        MOSUNNY   36  25  64 SW13      30.23F
TOLEDO EXPRESS PTSUNNY   33  23  66 SW12G17   30.23F WCI  24
TOLEDO METCALF PTSUNNY   34  24  67 SW15      30.24F WCI  24
LIMA           SUNNY     36  21  54 SW14      30.23F

$$
AND FOR LAKE MICHIGAN COASTAL AND OPEN LAKE BUOY OBSERVATIONS

STATION/POSITION TEMP    WIND        PRES    VSBY  WAVE
                 AIR SEA DIR/SP/G                  HT/PER
                 (F)     (DEG/KT/KT) (MB)    (MI)  (FT/S)
CALUMET HARBOR    37     210/  9/ 16 1022.7F
MICHIGAN CITY     35     200/ 16/ 18   N/A
BURNS HARBOR      36     230/ 11/ 19 1024.0F
SAINT JOSEPH      33     190/ 13/ 16 1024.0F

$$
&&




USA.gov is the U.S. government's official web portal to all federal, state and local government web resources and services.